Location: Namasale
(1.5000°N, 32.6167°E)
Time: 08:45:08
(UTC+00:00)

Vanguard 1 Rocket - Pass Details

Date: 25 April 2021
Orbit: 652 x 4225 km, 34.3° (Epoch: 15 May)

Event Time Altitude Azimuth Distance (km) Brightness Sun altitude
Rises 16:31:10 0° 322° (NW) 3,189 11.1 -10.3°
Reaches altitude 10° 16:33:16 10° 329° (NNW) 2,437 10.3 -10.8°
Maximum altitude 16:38:37 44° 42° (NE) 1,517 8.3 -12.1°
Enters shadow 16:45:27 17° 106° (ESE) 3,362 9.6 -13.7°
Drops below altitude 10° 16:47:54 10° 111° (ESE) 4,198 - -14.3°
Sets 16:52:42 0° 116° (ESE) 5,807 - -15.5°
